SCP
0 0 0 0 0 0 0 0 0 0 0 0 0 0 0 0 0 0 0 0 0 0 0 0 0 0 1 1 0 0 1 0 0 0 0 0 0 0 0 0 0 0 0 0 0 0 0 0 0
0 0 0 0 0 0 0 0 0 0 0 0 0 0 0 0 0 0 0 0 0 0 0 0 1 1 1 1 0 1 1 1 0 0 0 0 0 0 0 0 0 0 0 0 0 0 0 0 0
0 0 0 0 0 0 0 0 0 0 0 0 0 0 0 0 0 0 0 0 0 0 0 1 1 1 1 1 0 1 1 0 0 0 0 0 0 0 0 0 0 0 0 0 0 0 0 0 0
0 0 0 0 0 0 0 0 -0 -0 -0 -0 -0 0 0 0 0 0 0 0 0 0 0 1 2 2 1 1 1 1 0 0 0 0 0 0 0 0 0 0 0 0 0 0 0 0 0 0 0
0 0 0 0 0 0 0 0 -0 -0 -0 -0 0 0 0 0 0 0 0 0 0 0 1 1 2 2 1 1 1 1 0 0 0 0 0 0 0 0 0 0 0 0 0 0 0 0 0 0 0
0 0 0 0 0 0 0 0 -0 -0 -0 0 0 0 0 0 0 0 0 0 0 0 1 1 2 2 1 1 1 1 1 0 0 0 0 0 0 0 0 0 0 0 0 0 0 0 0 0 0
0 0 0 0 0 0 0 -0 -0 -0 0 0 0 0 0 0 0 0 0 0 0 0 1 1 1 1 1 1 1 1 1 0 0 0 0 0 0 0 0 0 0 0 0 0 0 0 0 0 0
0 0 0 0 0 0 0 0 0 0 0 0 0 0 0 0 0 0 0 0 0 0 1 1 1 1 1 1 1 1 1 0 0 0 0 0 0 0 0 0 0 0 0 0 0 0 0 0 0
0 0 0 0 0 0 0 0 0 0 0 0 0 0 0 0 0 0 0 0 0 0 0 1 1 1 1 1 1 1 0 0 0 0 0 0 0 0 0 0 0 0 0 0 0 0 0 0 0
0 0 0 0 0 0 0 0 0 0 0 0 0 0 0 0 0 0 0 0 0 0 0 1 1 1 1 1 1 0 0 0 0 0 0 0 0 0 0 0 0 0 0 0 0 0 0 0 0
0 0 0 0 0 0 0 0 0 0 0 0 0 0 0 0 0 0 0 0 0 0 1 1 1 1 1 1 0 0 0 0 0 0 0 0 0 0 0 0 0 0 0 0 0 0 0 0 0
0 0 0 0 0 0 0 0 0 0 0 0 0 0 0 0 0 0 0 0 0 1 1 1 1 1 1 0 0 0 0 0 0 0 0 0 0 0 0 0 0 0 0 0 0 0 0 0 0
1 0 0 0 0 0 0 0 0 0 0 0 0 0 0 0 0 0 0 0 0 1 1 1 1 1 1 0 0 0 0 0 0 0 0 0 0 0 0 0 0 0 0 0 0 0 0 0 0
2 1 1 0 0 0 0 0 0 0 0 0 0 0 0 0 0 0 0 0 0 1 1 1 1 1 1 0 0 0 0 0 0 0 0 0 0 0 0 0 0 0 0 0 0 0 0 0 0
5 4 2 1 0 0 0 0 0 0 0 0 0 0 0 0 0 0 0 0 0 0 1 1 1 1 1 0 0 0 0 0 0 0 0 0 0 0 0 0 0 0 0 0 0 0 0 0 0
7 5 3 1 1 0 0 0 0 0 0 0 0 0 0 0 0 0 0 0 0 0 0 1 1 1 1 0 0 0 0 0 0 0 0 0 0 0 0 0 0 0 0 0 0 0 0 0 0
5 4 2 1 1 1 1 0 0 0 0 0 0 0 0 0 0 0 0 0 0 0 0 0 1 1 1 0 0 0 0 0 0 0 0 0 0 0 0 0 0 0 0 0 0 0 0 0 0
2 1 1 0 1 1 1 1 0 0 0 0 0 0 0 0 0 0 0 0 0 0 0 0 0 1 1 0 0 0 0 0 0 0 0 0 0 0 0 0 0 0 0 0 0 0 0 1 1
0 0 0 0 0 1 1 1 0 0 0 0 0 0 0 0 0 0 0 0 0 0 0 0 0 0 1 0 0 0 0 0 0 0 0 0 0 0 0 0 0 0 0 0 0 0 0 1 1
0 0 0 0 0 1 1 1 0 0 0 0 0 0 0 0 0 0 0 0 0 0 0 1 1 1 1 1 0 0 0 0 0 0 0 0 0 0 0 0 0 0 0 0 0 0 0 1 1
1 1 1 1 1 1 1 1 1 0 0 0 0 0 0 0 0 0 0 0 0 0 0 1 1 1 1 1 1 0 0 0 0 0 0 0 0 0 0 0 0 0 0 0 0 0 0 1 1
2 1 1 1 1 1 1 1 1 0 0 0 0 0 0 0 0 0 0 0 0 0 0 1 1 1 1 1 1 1 0 0 0 0 0 0 0 0 0 0 0 0 1 1 0 0 0 0 1
1 2 2 1 1 0 1 1 1 0 0 0 0 0 0 0 0 0 0 0 0 0 0 1 1 1 1 1 1 1 1 0 0 0 0 0 0 0 0 0 0 1 1 1 0 0 0 0 0
1 2 2 2 1 0 0 0 0 0 0 0 0 0 0 0 0 0 0 0 0 0 0 1 1 1 1 1 1 1 1 0 0 0 0 0 0 0 0 0 0 1 1 1 0 0 0 0 0
2 2 2 2 1 1 1 1 0 0 0 0 0 0 0 0 0 0 0 0 0 0 0 0 1 1 1 1 1 1 1 1 1 0 0 0 0 0 0 0 0 0 0 0 0 0 0 0 0
2 2 2 1 1 1 1 1 0 0 0 0 0 0 0 0 0 0 0 0 0 0 0 0 0 1 1 1 1 1 1 1 1 1 0 0 0 0 0 0 0 0 0 0 0 0 0 0 0
2 2 1 1 1 1 1 1 0 0 0 0 0 0 0 0 0 0 0 0 0 0 0 0 0 0 1 1 2 2 1 1 1 1 0 0 0 0 0 0 0 0 0 0 0 0 0 0 0
1 1 1 1 1 1 1 0 0 0 0 0 0 0 0 0 0 0 0 0 0 0 0 0 0 0 0 1 1 2 2 1 1 1 1 0 0 0 0 0 0 0 0 0 0 0 0 0 0
1 1 1 1 1 1 1 0 0 0 0 0 0 0 0 0 0 0 0 0 0 0 0 0 0 0 0 0 1 2 2 2 1 1 1 1 0 0 0 0 0 0 0 0 0 0 0 0 0
1 1 2 3 3 2 1 0 0 0 0 0 0 0 0 0 0 0 0 0 0 0 0 0 0 0 0 0 0 1 2 2 2 1 1 1 1 0 0 0 0 0 0 0 0 0 0 0 0
Wind_Speed
2 3 4 4 6 6 7 4 4 5 5 3 4 4 4 3 1 3 5 11 14 17 17 18 17 16 15 14 13 13 12 11 11 11 10 10 10 10 11 11 11 12 12 12 12 13 13 13 13
3 4 5 5 6 8 6 6 8 6 4 5 5 4 4 3 2 5 8 12 15 17 16 16 17 17 16 15 14 13 12 12 11 11 10 10 10 10 11 11 11 11 11 11 12 12 12 12 12
3 4 5 5 7 7 4 5 7 5 5 5 6 3 2 3 4 6 9 15 16 16 15 16 17 17 16 15 15 13 13 12 11 11 10 10 10 10 10 11 10 11 11 11 11 11 11 11 12
4 5 5 8 10 7 4 3 6 8 6 4 5 5 3 3 3 6 13 16 17 16 15 17 17 17 16 16 15 13 13 12 11 11 10 10 10 10 10 10 10 10 10 10 10 10 10 10 10
4 5 8 10 11 7 6 4 7 9 8 7 7 5 6 5 4 9 15 16 16 16 14 17 17 17 16 16 15 14 13 12 12 11 10 10 10 10 9 9 9 9 9 9 9 9 9 9 9
5 6 9 12 11 8 7 6 8 9 7 7 7 6 6 6 8 11 15 15 15 15 14 15 17 16 16 16 15 14 13 12 12 11 10 10 10 10 9 9 8 8 8 8 8 8 8 8 8
7 8 11 12 10 9 7 7 10 10 10 8 7 7 7 9 8 12 14 14 14 14 13 13 15 15 15 15 15 14 13 12 12 11 11 10 10 9 8 8 8 8 7 7 7 7 7 7 7
6 6 11 12 12 10 6 7 6 10 8 4 6 7 6 10 11 12 13 12 13 13 13 13 14 14 14 13 13 13 12 12 12 11 10 9 9 9 8 7 7 6 6 6 6 6 7 6 6
6 9 12 13 11 8 7 8 6 4 5 5 5 0 5 12 14 14 12 12 13 13 13 13 13 13 12 12 12 12 12 11 11 10 10 8 7 8 7 6 5 5 5 5 5 6 6 4 5
9 12 15 9 9 7 8 9 8 8 9 8 7 4 7 13 15 17 17 17 17 17 16 13 13 13 12 9 10 9 9 10 9 9 10 7 5 5 4 7 4 4 4 4 4 4 2 1 2
10 14 11 10 9 7 7 8 7 10 10 11 11 10 11 13 15 16 17 18 18 17 16 15 14 13 12 9 8 7 6 7 8 9 9 6 5 5 4 4 4 4 3 3 3 2 1 1 2
11 12 11 10 9 8 9 7 9 13 10 6 8 9 13 15 17 18 18 17 16 16 17 16 15 13 13 10 8 8 7 6 6 8 9 7 5 4 4 3 3 3 2 1 1 0 1 1 1
16 12 11 10 9 10 9 11 10 12 11 4 5 9 13 15 17 16 15 15 15 17 17 17 16 15 13 11 8 8 8 8 8 7 8 8 6 5 5 3 3 3 2 2 1 1 0 1 1
12 13 12 11 12 10 11 13 12 12 10 9 9 11 13 15 16 15 15 16 17 17 18 17 18 16 15 12 10 9 8 8 8 8 9 9 6 5 5 4 4 3 3 2 2 1 1 1 1
9 11 13 13 13 10 10 16 18 14 10 12 12 12 13 14 14 15 17 17 18 17 17 18 18 17 16 15 13 9 8 9 8 8 10 10 8 7 6 5 4 4 3 3 2 2 2 1 1
10 14 15 13 13 12 13 19 14 12 13 14 14 13 12 13 15 15 15 15 16 16 17 18 15 17 17 15 13 9 9 9 8 8 9 11 10 9 7 5 5 5 4 3 3 2 2 2 2
12 16 18 14 13 12 16 17 11 10 13 15 14 14 13 13 14 14 14 15 15 16 17 18 18 18 17 16 12 11 9 10 9 8 9 10 11 10 8 6 6 6 5 4 3 3 2 2 2
16 18 18 17 11 15 17 18 12 9 12 14 14 13 13 13 14 13 13 14 14 15 16 17 18 18 16 13 11 9 10 9 9 9 10 11 10 12 9 7 7 7 5 5 5 4 3 2 2
15 17 18 14 9 13 18 19 17 14 13 14 14 14 13 13 12 11 11 12 13 14 16 18 18 18 15 12 11 11 11 10 9 9 11 12 11 12 10 7 8 7 7 7 7 5 5 3 2
17 17 16 12 8 11 14 19 18 17 17 15 16 15 14 13 12 10 10 11 13 15 17 18 18 18 18 14 12 11 10 9 9 8 10 12 12 12 10 10 8 8 7 7 7 6 4 3 3
20 20 18 12 7 9 10 16 19 17 17 16 16 16 15 14 13 12 12 12 12 14 16 15 17 18 18 16 11 9 8 7 8 10 10 12 13 12 11 12 10 9 8 7 8 8 7 5 4
20 18 16 13 11 9 10 12 15 15 17 18 18 17 17 15 14 12 12 12 12 13 13 15 16 17 17 17 14 16 12 12 13 10 10 11 13 12 12 11 11 10 8 8 8 8 7 6 5
14 12 14 14 13 12 11 12 12 11 17 19 18 17 16 15 14 13 12 11 11 11 11 13 14 16 17 17 17 16 14 12 10 10 11 11 11 12 12 11 10 10 8 9 9 8 8 6 6
10 8 6 7 9 15 17 15 14 13 17 16 16 16 15 14 13 12 11 9 9 9 10 11 13 15 16 17 17 17 17 14 12 12 11 10 8 9 12 11 10 10 8 9 9 8 9 7 7
15 11 8 10 11 13 13 15 15 11 12 14 14 14 13 12 12 11 11 10 10 11 11 11 13 14 15 16 16 17 16 15 15 13 12 11 9 9 11 11 11 9 9 9 8 8 8 9 8
21 19 12 10 11 10 11 16 13 10 10 11 11 11 10 11 11 10 10 10 10 11 12 12 13 13 14 15 15 14 15 11 10 12 10 11 9 9 11 12 11 10 9 8 8 7 8 7 8
18 18 13 7 5 8 10 11 11 9 11 12 12 11 11 11 10 9 9 9 9 10 11 12 13 13 13 14 14 13 13 12 11 11 11 9 9 8 10 11 11 10 9 9 9 7 8 7 7
14 13 9 10 9 11 11 14 10 12 16 14 13 13 12 10 9 8 7 8 8 8 9 10 11 12 12 13 12 9 12 12 11 10 11 10 10 9 10 10 10 10 9 9 9 7 7 8 7
14 15 11 10 9 9 10 9 7 11 12 14 14 13 11 10 9 7 7 7 7 8 9 10 10 11 11 12 11 11 11 11 11 10 10 10 9 9 10 10 10 10 10 9 9 8 8 8 7
15 16 16 12 11 11 10 6 4 6 6 8 9 8 8 8 7 6 7 7 8 8 9 9 10 10 10 10 11 11 10 10 10 10 10 10 9 9 9 9 9 9 9 9 9 9 8 8 8
Wind_Direction
209 202 204 219 221 224 225 197 193 168 174 156 155 186 209 204 273 49 95 153 147 152 154 156 155 152 148 144 139 135 130 125 119 114 109 106 101 96 93 90 86 84 81 79 77 75 73 72 71
221 206 216 227 233 218 207 198 197 183 137 134 159 182 192 178 63 98 139 153 152 153 155 156 154 154 150 146 142 138 135 130 125 120 117 112 106 101 96 92 89 86 84 82 79 77 75 73 71
199 233 230 221 229 228 201 185 188 151 151 172 165 191 215 123 130 135 141 154 155 155 157 150 156 156 153 150 146 142 140 136 131 127 122 116 110 105 100 95 92 89 87 85 83 80 77 76 74
213 207 223 232 224 228 240 162 160 160 168 197 186 169 156 72 103 124 141 157 157 157 159 153 161 158 156 153 149 147 145 141 136 132 128 122 115 109 103 100 97 94 91 88 86 82 79 77 76
228 224 219 225 229 227 230 222 187 186 179 183 201 177 147 111 105 134 152 160 160 159 160 157 164 161 160 157 153 151 149 146 142 138 134 128 121 115 110 104 100 98 95 90 88 84 80 78 75
211 223 224 222 220 221 221 205 200 207 194 183 198 185 140 124 145 150 158 164 163 161 163 159 166 165 163 160 157 155 154 151 147 144 139 134 129 123 117 111 106 101 96 93 87 83 80 78 74
225 222 233 230 225 222 216 196 208 207 203 191 194 188 148 147 147 154 161 164 165 165 167 166 168 169 166 163 160 159 158 155 151 148 141 136 133 129 123 117 110 104 97 92 84 81 80 74 71
238 229 229 226 225 223 196 184 213 213 207 161 196 205 166 148 146 154 160 165 168 171 175 174 173 172 171 168 163 161 161 159 154 147 137 134 135 133 129 130 113 107 102 93 84 81 78 73 67
222 229 226 219 221 217 186 193 186 203 182 172 198 350 72 131 147 154 161 170 176 181 182 182 179 176 175 172 162 165 163 160 156 149 138 152 158 149 146 112 110 110 105 94 85 80 79 84 91
212 228 228 224 224 219 193 203 183 186 197 192 184 146 132 150 162 169 176 180 183 186 187 185 185 180 178 172 170 175 172 169 177 167 165 173 164 145 137 116 110 106 105 107 88 85 118 230 91
215 231 231 227 225 228 210 206 197 209 213 212 206 181 162 172 180 187 189 189 189 187 186 189 187 184 182 178 179 177 176 176 182 177 174 174 167 158 166 158 154 157 166 155 135 183 93 31 36
223 229 232 227 219 221 223 215 211 222 227 227 224 183 174 186 193 198 197 195 190 190 191 191 189 188 188 186 184 183 181 180 182 182 183 179 176 179 172 178 168 177 176 165 190 260 68 13 13
225 228 225 230 225 226 230 228 230 230 234 234 205 182 193 198 203 206 205 198 193 194 193 194 193 191 190 190 190 191 190 186 185 184 189 188 185 186 181 186 182 191 189 193 209 226 262 318 342
224 227 227 227 227 226 232 238 234 235 230 222 208 204 206 208 209 205 203 202 200 198 195 193 195 194 192 192 194 194 193 191 191 188 194 194 194 191 191 194 195 200 202 209 228 234 264 294 313
225 227 230 227 226 223 230 241 233 233 226 225 223 221 218 217 214 212 208 207 204 200 196 194 195 196 196 196 198 197 195 194 196 195 196 197 200 197 197 202 201 201 201 207 222 222 256 283 287
208 222 229 220 218 216 220 243 230 223 224 230 231 228 222 221 220 219 215 213 208 201 198 195 192 197 198 198 198 199 197 197 200 198 199 201 203 203 202 205 206 200 200 208 217 231 243 255 273
209 221 224 219 209 210 220 245 235 219 222 231 232 230 227 224 223 223 219 214 208 203 198 195 194 198 198 198 197 200 199 200 203 201 202 202 204 204 207 208 206 199 202 208 209 225 246 258 269
207 218 223 223 204 212 225 239 236 223 226 232 233 231 229 230 228 224 217 213 208 203 199 197 195 198 195 194 196 197 203 204 206 205 206 204 203 204 207 207 207 201 202 205 206 208 214 243 254
223 223 225 226 213 218 232 242 242 235 230 235 234 232 231 233 234 224 215 208 202 200 199 197 196 196 192 190 193 195 200 202 204 207 209 206 206 204 204 204 204 203 207 207 207 205 207 212 221
225 227 230 229 216 231 244 248 246 241 235 234 235 234 233 233 228 219 210 202 200 199 199 199 198 194 193 194 194 198 198 202 205 204 209 208 207 204 202 204 202 202 206 206 203 200 207 199 210
222 225 226 226 210 226 256 254 241 235 235 234 236 237 236 232 230 221 210 204 200 201 200 199 198 196 195 194 191 188 190 195 199 203 205 208 207 204 203 206 204 201 203 204 202 201 206 207 199
223 223 226 224 226 226 225 257 239 227 227 228 229 229 231 230 228 225 219 210 203 203 199 200 198 197 195 192 193 190 193 197 202 200 202 203 205 204 205 205 204 201 202 202 200 201 205 207 205
222 214 219 225 233 245 226 248 251 223 230 228 225 225 226 227 225 223 219 214 207 199 195 196 195 196 194 195 197 197 202 205 201 198 200 201 201 203 203 204 203 202 202 203 197 197 202 207 213
197 186 204 224 230 240 228 233 254 222 227 226 221 220 221 221 220 219 216 209 202 192 188 189 191 193 193 195 198 201 204 204 199 197 197 198 197 200 202 201 202 203 202 202 199 198 202 206 212
195 183 189 199 212 232 214 226 246 235 227 228 223 219 217 215 213 210 205 200 195 188 185 185 187 189 190 194 199 202 205 205 204 200 200 197 196 197 201 198 201 202 202 200 196 196 200 204 207
199 200 204 207 214 215 201 228 240 228 228 232 234 228 220 216 211 208 204 198 192 189 186 184 186 186 188 192 197 200 202 203 205 205 201 200 200 199 197 198 200 200 198 195 193 196 199 202 207
199 210 222 240 244 230 212 231 248 230 228 225 223 219 217 213 208 205 200 195 190 186 185 185 184 184 186 190 193 196 198 200 203 203 204 203 202 197 195 195 196 197 196 195 193 199 199 199 205
213 196 200 213 213 227 227 229 229 204 210 208 210 211 212 208 202 198 192 188 185 183 181 183 184 183 184 187 189 191 194 197 200 199 201 200 197 191 190 191 193 193 194 194 193 198 200 200 204
193 197 202 208 224 228 233 230 215 214 205 203 206 207 206 202 198 191 183 178 174 172 176 179 181 181 182 185 186 187 190 193 196 198 199 198 194 190 190 190 190 191 192 192 194 199 195 200 202
205 200 197 202 206 224 242 238 163 218 219 215 211 206 203 199 192 180 172 169 170 173 174 178 179 180 180 181 183 185 186 188 191 194 195 193 191 189 190 189 189 189 190 191 196 199 198 201 206